SCP
0 0 0 0 0 0 0 0 0 0 0 0 0 0 0 -0 -0 0 -0 0 0 0 0 0 0 0 0 0 0 0 0 0 0 0 0 0 0 0 0 0 0 0 0 0 0
0 0 0 0 0 0 0 0 0 0 0 0 0 0 0 0 0 -0 0 0 0 0 0 -0 0 0 0 0 0 0 0 0 0 0 0 0 0 0 0 0 0 0 0 0 0
0 0 0 0 0 0 0 0 0 0 0 0 0 0 0 0 -0 0 0 0 0 0 -0 0 0 0 0 0 0 0 0 0 0 0 0 0 0 0 0 0 0 0 0 0 0
0 0 0 0 0 0 0 0 0 0 0 0 0 0 0 0 0 0 0 0 0 0 -0 0 0 0 0 0 0 0 0 0 0 0 0 0 0 0 0 0 0 0 0 0 0
0 0 0 0 0 0 0 0 0 0 0 0 0 0 0 0 0 0 0 0 0 0 0 0 0 0 0 0 0 0 0 0 0 0 0 0 0 0 0 0 0 0 0 0 0
0 0 0 0 0 0 0 0 0 0 0 0 0 0 0 0 0 0 0 0 0 0 0 0 0 0 0 0 0 0 0 0 0 0 0 0 0 0 0 0 0 0 0 0 0
0 0 0 0 0 0 0 0 0 0 0 0 0 0 0 0 0 0 0 0 0 0 0 0 0 0 0 0 0 0 0 0 0 0 0 0 0 0 0 0 0 0 0 0 0
0 0 0 0 0 0 0 0 0 0 0 0 0 0 0 0 0 0 0 0 0 0 0 0 0 0 0 0 0 0 0 0 0 0 0 0 0 0 0 0 0 0 0 0 0
0 0 0 0 0 0 0 0 0 0 0 0 0 0 0 0 -0 -0 0 -0 0 0 0 0 0 0 0 0 0 0 0 0 0 0 0 0 0 0 -0 0 0 0 0 0 0
0 0 0 0 0 0 0 0 0 0 0 0 0 0 0 0 -0 0 0 0 0 0 0 0 0 0 0 0 0 0 0 0 0 0 0 0 0 0 0 0 0 0 0 0 0
0 0 0 0 0 0 0 0 0 0 0 0 0 0 0 0 0 0 0 0 0 0 0 0 0 0 0 0 0 0 0 0 0 0 0 0 0 0 0 0 0 0 0 0 0
0 0 0 0 0 0 0 0 0 0 0 0 0 0 0 0 0 0 0 0 0 0 0 0 0 0 0 0 0 0 0 0 0 0 0 0 0 0 0 0 0 0 0 0 0
0 0 0 0 0 0 0 0 0 0 0 0 0 0 0 0 0 0 0 0 0 0 0 0 0 0 0 0 0 0 0 0 0 0 0 0 0 0 0 0 0 0 0 0 0
0 0 0 0 0 0 0 0 0 0 0 0 0 0 0 -0 0 0 0 0 0 0 0 0 0 0 0 0 0 0 0 0 0 0 0 0 0 0 0 0 0 0 0 0 0
0 0 0 0 0 0 0 0 0 0 0 0 0 0 0 0 0 0 -0 0 0 -0 -0 0 0 0 0 0 0 0 0 0 0 0 0 0 0 0 0 0 0 0 0 0 0
0 0 0 0 0 0 0 0 0 0 0 0 0 0 0 0 0 0 0 0 0 -0 0 -0 0 0 0 0 0 0 0 0 0 0 0 0 0 0 0 0 0 1 0 0 0
0 0 0 0 0 0 0 0 0 0 0 0 0 0 0 0 0 0 0 0 0 0 0 0 0 0 0 0 0 0 0 0 0 0 0 0 0 0 0 0 1 0 0 0 0
0 0 0 0 0 0 0 0 0 0 0 0 0 0 0 0 0 0 0 0 0 0 0 0 0 0 0 0 0 0 0 0 0 0 0 0 0 0 0 0 0 0 0 0 0
0 0 0 0 0 0 0 0 0 0 0 0 -0 0 0 0 0 0 0 0 0 0 0 0 0 0 0 0 0 0 0 0 0 -0 0 0 0 0 0 0 0 0 0 0 0
0 0 0 0 0 0 0 0 0 0 0 0 0 0 0 0 0 0 0 0 0 0 0 0 0 0 0 0 0 0 0 0 0 0 0 0 0 0 0 0 0 0 0 0 0
0 0 0 0 0 0 0 0 0 0 0 0 0 0 0 0 0 0 0 0 0 0 0 0 0 0 0 0 0 0 0 0 0 0 0 0 0 0 0 0 0 0 0 0 0
0 0 0 0 0 0 0 0 0 0 0 0 0 0 0 0 0 0 0 0 0 0 0 0 0 0 0 0 0 0 0 0 0 0 0 0 0 0 0 0 0 0 0 0 0
0 0 0 0 0 0 0 0 0 0 0 0 0 0 0 0 0 0 0 0 0 0 0 0 0 0 0 0 0 0 0 0 0 0 0 0 0 0 0 0 -0 -0 0 0 0
0 0 0 0 0 0 0 0 0 0 0 0 0 0 0 0 0 0 0 0 0 0 0 0 0 0 0 0 0 0 0 0 0 0 0 0 0 0 0 0 0 0 0 0 0
0 0 0 0 0 0 0 0 0 0 0 0 0 0 0 0 0 0 0 0 0 0 0 0 0 0 0 0 0 0 0 0 0 0 0 0 0 0 0 0 0 0 0 0 0
0 0 0 0 0 0 0 0 0 0 0 0 0 0 0 0 0 0 0 0 0 0 0 0 0 0 0 0 0 0 0 0 0 0 0 0 0 0 0 0 0 0 0 0 0
0 0 0 0 0 0 0 0 0 0 0 0 0 0 0 0 0 0 0 0 0 0 0 0 0 0 0 0 0 0 0 0 0 0 0 0 0 0 0 0 0 0 0 0 0
Wind_Speed_500mb
35 34 34 35 35 36 37 40 40 42 42 44 49 52 51 56 52 49 30 26 34 42 33 14 18 20 20 24 30 27 12 24 40 39 39 40 24 13 13 11 30 20 27 36 32
41 40 41 42 42 42 40 44 42 43 45 43 49 49 52 57 57 51 21 11 3 12 8 7 16 17 26 25 22 32 21 36 37 38 36 33 39 40 33 31 29 25 33 28 33
52 52 50 52 47 45 44 44 45 46 47 47 49 48 50 52 47 3 8 13 29 16 14 16 22 21 31 36 40 40 36 35 43 53 55 43 40 45 45 34 39 30 38 39 27
58 55 54 53 55 55 50 45 48 52 48 46 48 50 45 41 14 5 24 39 38 29 18 23 23 30 28 31 42 42 51 50 53 54 49 40 56 50 51 48 44 43 38 34 35
53 52 51 52 54 52 45 53 49 52 52 50 48 48 46 23 42 46 40 37 34 26 19 22 29 31 34 30 39 41 42 54 57 53 50 57 47 49 55 56 53 47 39 35 32
47 47 44 44 44 45 46 49 47 49 51 51 47 41 30 38 29 30 31 28 28 19 22 25 28 33 46 47 42 53 60 58 46 47 55 50 48 48 52 53 57 42 44 45 43
42 43 45 44 44 43 41 41 43 44 48 45 47 46 36 56 47 35 35 32 31 30 35 34 31 34 30 33 39 43 41 44 49 60 53 59 54 50 56 58 57 56 45 40 34
39 41 42 43 44 45 43 43 35 43 47 47 38 39 31 39 45 48 43 50 39 31 36 35 34 41 46 50 58 48 48 43 35 44 56 56 54 35 45 40 30 37 37 43 37
44 44 45 44 40 39 40 38 30 44 39 42 33 20 37 13 24 18 33 42 32 36 29 27 27 41 37 32 35 32 40 48 55 45 42 32 43 29 32 19 14 24 29 35 29
43 45 43 42 39 31 29 31 29 39 41 29 29 17 32 33 30 12 15 22 30 24 27 25 20 26 23 26 35 39 38 46 48 43 32 38 40 34 47 45 26 31 35 34 31
42 41 40 37 31 37 26 22 16 18 30 36 27 27 17 12 14 16 14 16 27 32 29 37 25 32 37 41 49 44 51 56 52 51 53 44 40 34 33 43 38 43 48 44 40
42 40 36 34 29 32 27 25 26 15 31 46 58 67 67 56 69 55 33 30 32 38 36 34 43 42 45 47 51 54 57 55 50 51 44 49 49 44 40 40 48 52 45 42 44
43 39 37 34 31 35 46 44 25 10 19 49 67 76 70 54 69 66 56 57 44 44 44 45 53 45 47 50 54 50 51 50 58 53 54 46 49 45 40 54 61 57 45 18 36
41 38 37 34 30 48 51 39 27 7 9 25 33 29 33 61 53 64 63 64 58 61 54 54 49 55 54 55 51 44 42 52 50 41 32 44 36 43 40 45 40 61 34 44 32
43 37 38 37 27 35 35 46 26 7 9 11 4 5 10 41 12 9 40 54 52 58 52 61 50 52 46 51 48 46 43 36 43 27 41 47 32 29 46 41 31 33 55 45 31
46 39 45 39 60 40 38 36 30 7 22 13 13 13 19 30 37 18 14 24 38 45 41 56 61 49 31 35 39 29 34 39 41 27 30 50 37 35 38 32 20 42 48 39 30
45 42 45 48 64 51 44 51 8 17 12 29 36 25 25 30 32 33 34 32 23 27 36 42 50 51 29 34 28 27 25 14 7 15 29 37 32 32 31 41 41 37 38 32 30
45 46 41 57 57 62 64 10 19 39 52 18 6 33 35 29 38 33 28 31 26 32 28 25 24 32 30 35 28 17 21 12 12 15 27 21 19 8 26 34 46 45 35 30 29
44 30 49 67 74 81 56 16 27 44 38 50 53 36 38 34 36 33 26 33 33 29 32 13 18 3 18 25 21 25 27 33 13 27 23 22 11 14 27 29 30 30 30 25 22
49 48 55 67 69 85 19 32 40 43 46 45 41 31 41 40 41 36 30 19 26 34 31 22 24 4 12 8 18 16 5 7 5 9 19 26 25 12 16 17 15 20 21 20 24
52 29 36 66 89 30 19 25 41 58 53 34 40 39 34 28 43 16 25 22 1 14 5 16 6 5 15 18 28 20 23 14 8 9 8 12 8 12 18 15 13 11 14 22 31
57 9 40 70 13 7 16 11 20 36 53 45 35 35 33 33 34 31 23 10 19 6 8 12 5 12 22 10 14 12 18 24 19 22 17 19 20 15 20 16 8 8 11 19 22
33 15 64 71 14 13 20 22 21 28 36 33 37 32 27 23 13 23 5 11 6 10 9 11 3 10 11 16 20 15 25 22 18 18 27 18 10 15 11 9 12 10 21 14 17
23 8 9 37 16 26 27 19 32 32 25 42 24 36 27 25 20 9 16 7 5 7 11 14 13 14 10 4 9 13 25 27 26 17 24 23 30 23 12 11 13 30 20 15 22
14 9 18 13 21 9 27 17 34 15 30 36 23 32 30 20 19 14 17 17 11 8 2 5 16 22 27 34 20 26 23 22 29 27 27 22 25 24 20 23 24 19 18 20 23
15 10 22 7 56 33 22 27 34 30 28 34 28 32 16 14 23 23 27 21 14 25 17 12 11 7 21 25 26 29 30 29 33 32 33 34 28 22 24 25 20 20 18 22 21
33 20 12 11 30 31 21 29 36 34 16 26 26 17 24 34 12 4 28 33 16 22 19 16 8 9 16 18 18 17 23 33 32 30 31 24 12 27 25 27 33 26 23 21 17
Wind_Direction_500mb
280 285 289 293 297 300 305 308 309 311 316 320 324 331 330 330 330 322 300 277 273 291 294 260 265 263 254 248 237 243 245 251 256 262 275 330 334 321 320 300 303 288 256 273 306
274 278 283 288 290 292 298 298 302 308 311 313 318 325 331 332 333 319 284 291 327 345 352 268 271 262 249 252 232 221 235 245 262 282 295 310 307 318 311 282 238 259 270 268 277
271 275 278 283 284 284 294 293 300 300 305 311 314 318 325 335 332 94 313 330 328 314 307 275 269 274 257 254 241 236 244 260 273 286 300 300 292 289 286 275 273 271 268 280 291
273 275 274 275 278 283 282 291 293 293 302 306 308 316 321 326 291 2 297 300 311 301 289 280 267 262 262 264 254 256 255 261 272 276 284 284 289 285 279 279 278 279 281 280 272
273 276 278 280 281 281 278 275 289 293 296 304 308 313 315 281 265 287 291 288 295 295 271 266 265 271 264 270 278 269 268 271 274 269 267 273 265 272 274 278 279 274 268 265 265
276 279 280 283 286 285 275 275 281 282 292 298 307 308 309 270 291 268 286 275 281 258 265 263 267 274 288 280 280 283 287 287 279 279 275 271 263 262 265 269 268 262 263 256 253
277 277 278 279 282 284 285 275 280 283 284 295 303 306 280 255 281 252 264 256 252 259 263 263 267 263 274 282 271 270 275 276 265 267 266 263 261 255 261 260 257 261 247 247 241
277 280 284 285 286 282 280 283 280 281 291 288 299 307 268 275 274 267 257 255 260 254 256 262 266 272 266 267 275 275 274 272 266 264 255 236 258 266 267 268 258 236 254 255 250
282 283 287 290 290 284 276 278 274 270 288 283 301 287 280 303 247 263 245 243 247 248 251 258 258 260 259 257 266 250 264 267 278 264 260 204 259 269 241 255 235 249 246 232 220
282 285 286 289 293 293 276 264 279 273 274 285 269 263 256 262 250 221 239 239 235 244 236 234 245 243 233 247 258 268 266 271 278 282 270 241 244 245 266 267 235 238 248 257 237
283 284 285 285 284 283 272 248 266 278 238 223 237 232 231 298 210 240 234 227 224 230 225 218 233 241 250 251 259 264 269 276 281 288 297 293 284 276 256 271 263 235 227 236 252
281 282 284 287 273 264 269 220 229 326 292 255 249 259 256 263 270 262 251 224 232 238 232 234 242 247 258 268 277 275 276 279 280 282 276 277 276 275 272 269 255 248 234 218 220
280 283 287 287 268 246 239 243 234 286 270 276 255 254 252 241 250 253 245 240 232 245 244 245 257 267 261 257 262 263 269 277 278 280 284 286 275 261 261 258 253 241 233 163 140
274 280 287 292 248 237 234 237 213 60 295 277 250 251 229 231 253 252 238 243 249 252 247 251 267 275 265 272 270 264 278 294 297 291 290 280 275 269 266 265 230 221 141 101 91
273 279 281 266 240 217 226 217 198 181 262 287 176 173 150 184 243 75 219 224 244 250 248 255 256 259 257 258 267 278 279 281 297 308 281 277 276 261 275 268 177 127 108 104 100
273 279 289 239 224 233 214 196 170 164 236 253 184 191 224 222 238 265 251 217 251 245 249 260 254 260 283 272 281 304 306 263 262 244 262 258 264 269 262 283 189 99 111 114 98
273 280 267 231 211 212 201 156 153 218 205 249 244 206 228 250 231 235 245 238 230 232 245 248 252 252 217 261 271 291 281 286 269 241 254 259 254 259 33 75 104 120 113 95 82
285 282 234 224 208 199 176 150 216 226 226 268 277 242 235 243 242 248 230 253 239 245 276 273 285 266 207 227 255 262 280 211 265 261 271 314 283 163 97 83 92 93 97 90 78
294 233 226 221 206 182 167 206 217 231 235 224 246 236 254 238 247 265 238 244 255 230 233 243 250 250 260 239 225 258 238 249 286 280 279 253 196 111 95 85 76 87 87 71 60
285 236 208 198 201 178 188 228 230 236 257 260 261 237 246 247 254 231 240 238 255 248 224 243 274 245 282 258 244 245 337 225 191 252 250 254 260 86 168 108 88 84 68 51 36
233 201 194 188 180 186 217 220 233 244 250 274 258 247 245 272 281 222 242 256 132 270 5 248 246 273 202 223 225 215 234 223 240 231 303 309 308 69 96 114 126 78 57 34 27
196 161 173 176 166 202 209 215 256 245 237 250 266 258 246 255 282 263 248 4 18 66 209 62 226 228 208 227 312 292 246 251 241 253 261 276 288 132 154 156 106 86 63 39 27
160 142 168 174 187 203 212 232 233 239 235 225 225 240 237 247 250 262 139 70 52 169 199 166 54 267 259 258 236 245 239 243 251 255 262 264 273 115 129 156 178 206 88 38 38
158 137 179 193 250 210 195 217 221 224 224 228 237 239 229 223 220 235 200 115 164 232 81 228 179 202 251 279 243 234 248 249 237 242 257 255 269 257 141 289 2 43 69 45 47
176 187 190 188 214 216 196 202 205 187 212 219 237 235 207 199 184 212 219 155 191 154 161 249 246 264 264 278 285 271 262 249 259 243 247 265 275 301 313 23 36 66 36 42 31
167 179 177 252 205 212 203 204 193 197 184 208 215 209 196 188 200 202 207 206 197 209 213 220 253 336 280 282 285 277 275 259 265 267 265 272 277 306 334 29 32 57 45 49 35
226 216 192 232 188 195 200 199 193 185 221 217 209 194 212 226 198 274 178 194 188 168 198 198 225 233 276 291 303 285 271 255 269 269 277 266 287 32 37 62 52 51 64 57 34
Wind_Speed_850mb
35 34 34 35 35 36 37 40 40 42 42 44 49 52 51 56 52 49 30 26 34 42 33 14 18 20 20 24 30 27 12 24 40 39 39 40 24 13 13 11 30 20 27 36 32
41 40 41 42 42 42 40 44 42 43 45 43 49 49 52 57 57 51 21 11 3 12 8 7 16 17 26 25 22 32 21 36 37 38 36 33 39 40 33 31 29 25 33 28 33
52 52 50 52 47 45 44 44 45 46 47 47 49 48 50 52 47 3 8 13 29 16 14 16 22 21 31 36 40 40 36 35 43 53 55 43 40 45 45 34 39 30 38 39 27
58 55 54 53 55 55 50 45 48 52 48 46 48 50 45 41 14 5 24 39 38 29 18 23 23 30 28 31 42 42 51 50 53 54 49 40 56 50 51 48 44 43 38 34 35
53 52 51 52 54 52 45 53 49 52 52 50 48 48 46 23 42 46 40 37 34 26 19 22 29 31 34 30 39 41 42 54 57 53 50 57 47 49 55 56 53 47 39 35 32
47 47 44 44 44 45 46 49 47 49 51 51 47 41 30 38 29 30 31 28 28 19 22 25 28 33 46 47 42 53 60 58 46 47 55 50 48 48 52 53 57 42 44 45 43
42 43 45 44 44 43 41 41 43 44 48 45 47 46 36 56 47 35 35 32 31 30 35 34 31 34 30 33 39 43 41 44 49 60 53 59 54 50 56 58 57 56 45 40 34
39 41 42 43 44 45 43 43 35 43 47 47 38 39 31 39 45 48 43 50 39 31 36 35 34 41 46 50 58 48 48 43 35 44 56 56 54 35 45 40 30 37 37 43 37
44 44 45 44 40 39 40 38 30 44 39 42 33 20 37 13 24 18 33 42 32 36 29 27 27 41 37 32 35 32 40 48 55 45 42 32 43 29 32 19 14 24 29 35 29
43 45 43 42 39 31 29 31 29 39 41 29 29 17 32 33 30 12 15 22 30 24 27 25 20 26 23 26 35 39 38 46 48 43 32 38 40 34 47 45 26 31 35 34 31
42 41 40 37 31 37 26 22 16 18 30 36 27 27 17 12 14 16 14 16 27 32 29 37 25 32 37 41 49 44 51 56 52 51 53 44 40 34 33 43 38 43 48 44 40
42 40 36 34 29 32 27 25 26 15 31 46 58 67 67 56 69 55 33 30 32 38 36 34 43 42 45 47 51 54 57 55 50 51 44 49 49 44 40 40 48 52 45 42 44
43 39 37 34 31 35 46 44 25 10 19 49 67 76 70 54 69 66 56 57 44 44 44 45 53 45 47 50 54 50 51 50 58 53 54 46 49 45 40 54 61 57 45 18 36
41 38 37 34 30 48 51 39 27 7 9 25 33 29 33 61 53 64 63 64 58 61 54 54 49 55 54 55 51 44 42 52 50 41 32 44 36 43 40 45 40 61 34 44 32
43 37 38 37 27 35 35 46 26 7 9 11 4 5 10 41 12 9 40 54 52 58 52 61 50 52 46 51 48 46 43 36 43 27 41 47 32 29 46 41 31 33 55 45 31
46 39 45 39 60 40 38 36 30 7 22 13 13 13 19 30 37 18 14 24 38 45 41 56 61 49 31 35 39 29 34 39 41 27 30 50 37 35 38 32 20 42 48 39 30
45 42 45 48 64 51 44 51 8 17 12 29 36 25 25 30 32 33 34 32 23 27 36 42 50 51 29 34 28 27 25 14 7 15 29 37 32 32 31 41 41 37 38 32 30
45 46 41 57 57 62 64 10 19 39 52 18 6 33 35 29 38 33 28 31 26 32 28 25 24 32 30 35 28 17 21 12 12 15 27 21 19 8 26 34 46 45 35 30 29
44 30 49 67 74 81 56 16 27 44 38 50 53 36 38 34 36 33 26 33 33 29 32 13 18 3 18 25 21 25 27 33 13 27 23 22 11 14 27 29 30 30 30 25 22
49 48 55 67 69 85 19 32 40 43 46 45 41 31 41 40 41 36 30 19 26 34 31 22 24 4 12 8 18 16 5 7 5 9 19 26 25 12 16 17 15 20 21 20 24
52 29 36 66 89 30 19 25 41 58 53 34 40 39 34 28 43 16 25 22 1 14 5 16 6 5 15 18 28 20 23 14 8 9 8 12 8 12 18 15 13 11 14 22 31
57 9 40 70 13 7 16 11 20 36 53 45 35 35 33 33 34 31 23 10 19 6 8 12 5 12 22 10 14 12 18 24 19 22 17 19 20 15 20 16 8 8 11 19 22
33 15 64 71 14 13 20 22 21 28 36 33 37 32 27 23 13 23 5 11 6 10 9 11 3 10 11 16 20 15 25 22 18 18 27 18 10 15 11 9 12 10 21 14 17
23 8 9 37 16 26 27 19 32 32 25 42 24 36 27 25 20 9 16 7 5 7 11 14 13 14 10 4 9 13 25 27 26 17 24 23 30 23 12 11 13 30 20 15 22
14 9 18 13 21 9 27 17 34 15 30 36 23 32 30 20 19 14 17 17 11 8 2 5 16 22 27 34 20 26 23 22 29 27 27 22 25 24 20 23 24 19 18 20 23
15 10 22 7 56 33 22 27 34 30 28 34 28 32 16 14 23 23 27 21 14 25 17 12 11 7 21 25 26 29 30 29 33 32 33 34 28 22 24 25 20 20 18 22 21
33 20 12 11 30 31 21 29 36 34 16 26 26 17 24 34 12 4 28 33 16 22 19 16 8 9 16 18 18 17 23 33 32 30 31 24 12 27 25 27 33 26 23 21 17
Wind_Direction_850mb
280 285 289 293 297 300 305 308 309 311 316 320 324 331 330 330 330 322 300 277 273 291 294 260 265 263 254 248 237 243 245 251 256 262 275 330 334 321 320 300 303 288 256 273 306
274 278 283 288 290 292 298 298 302 308 311 313 318 325 331 332 333 319 284 291 327 345 352 268 271 262 249 252 232 221 235 245 262 282 295 310 307 318 311 282 238 259 270 268 277
271 275 278 283 284 284 294 293 300 300 305 311 314 318 325 335 332 94 313 330 328 314 307 275 269 274 257 254 241 236 244 260 273 286 300 300 292 289 286 275 273 271 268 280 291
273 275 274 275 278 283 282 291 293 293 302 306 308 316 321 326 291 2 297 300 311 301 289 280 267 262 262 264 254 256 255 261 272 276 284 284 289 285 279 279 278 279 281 280 272
273 276 278 280 281 281 278 275 289 293 296 304 308 313 315 281 265 287 291 288 295 295 271 266 265 271 264 270 278 269 268 271 274 269 267 273 265 272 274 278 279 274 268 265 265
276 279 280 283 286 285 275 275 281 282 292 298 307 308 309 270 291 268 286 275 281 258 265 263 267 274 288 280 280 283 287 287 279 279 275 271 263 262 265 269 268 262 263 256 253
277 277 278 279 282 284 285 275 280 283 284 295 303 306 280 255 281 252 264 256 252 259 263 263 267 263 274 282 271 270 275 276 265 267 266 263 261 255 261 260 257 261 247 247 241
277 280 284 285 286 282 280 283 280 281 291 288 299 307 268 275 274 267 257 255 260 254 256 262 266 272 266 267 275 275 274 272 266 264 255 236 258 266 267 268 258 236 254 255 250
282 283 287 290 290 284 276 278 274 270 288 283 301 287 280 303 247 263 245 243 247 248 251 258 258 260 259 257 266 250 264 267 278 264 260 204 259 269 241 255 235 249 246 232 220
282 285 286 289 293 293 276 264 279 273 274 285 269 263 256 262 250 221 239 239 235 244 236 234 245 243 233 247 258 268 266 271 278 282 270 241 244 245 266 267 235 238 248 257 237
283 284 285 285 284 283 272 248 266 278 238 223 237 232 231 298 210 240 234 227 224 230 225 218 233 241 250 251 259 264 269 276 281 288 297 293 284 276 256 271 263 235 227 236 252
281 282 284 287 273 264 269 220 229 326 292 255 249 259 256 263 270 262 251 224 232 238 232 234 242 247 258 268 277 275 276 279 280 282 276 277 276 275 272 269 255 248 234 218 220
280 283 287 287 268 246 239 243 234 286 270 276 255 254 252 241 250 253 245 240 232 245 244 245 257 267 261 257 262 263 269 277 278 280 284 286 275 261 261 258 253 241 233 163 140
274 280 287 292 248 237 234 237 213 60 295 277 250 251 229 231 253 252 238 243 249 252 247 251 267 275 265 272 270 264 278 294 297 291 290 280 275 269 266 265 230 221 141 101 91
273 279 281 266 240 217 226 217 198 181 262 287 176 173 150 184 243 75 219 224 244 250 248 255 256 259 257 258 267 278 279 281 297 308 281 277 276 261 275 268 177 127 108 104 100
273 279 289 239 224 233 214 196 170 164 236 253 184 191 224 222 238 265 251 217 251 245 249 260 254 260 283 272 281 304 306 263 262 244 262 258 264 269 262 283 189 99 111 114 98
273 280 267 231 211 212 201 156 153 218 205 249 244 206 228 250 231 235 245 238 230 232 245 248 252 252 217 261 271 291 281 286 269 241 254 259 254 259 33 75 104 120 113 95 82
285 282 234 224 208 199 176 150 216 226 226 268 277 242 235 243 242 248 230 253 239 245 276 273 285 266 207 227 255 262 280 211 265 261 271 314 283 163 97 83 92 93 97 90 78
294 233 226 221 206 182 167 206 217 231 235 224 246 236 254 238 247 265 238 244 255 230 233 243 250 250 260 239 225 258 238 249 286 280 279 253 196 111 95 85 76 87 87 71 60
285 236 208 198 201 178 188 228 230 236 257 260 261 237 246 247 254 231 240 238 255 248 224 243 274 245 282 258 244 245 337 225 191 252 250 254 260 86 168 108 88 84 68 51 36
233 201 194 188 180 186 217 220 233 244 250 274 258 247 245 272 281 222 242 256 132 270 5 248 246 273 202 223 225 215 234 223 240 231 303 309 308 69 96 114 126 78 57 34 27
196 161 173 176 166 202 209 215 256 245 237 250 266 258 246 255 282 263 248 4 18 66 209 62 226 228 208 227 312 292 246 251 241 253 261 276 288 132 154 156 106 86 63 39 27
160 142 168 174 187 203 212 232 233 239 235 225 225 240 237 247 250 262 139 70 52 169 199 166 54 267 259 258 236 245 239 243 251 255 262 264 273 115 129 156 178 206 88 38 38
158 137 179 193 250 210 195 217 221 224 224 228 237 239 229 223 220 235 200 115 164 232 81 228 179 202 251 279 243 234 248 249 237 242 257 255 269 257 141 289 2 43 69 45 47
176 187 190 188 214 216 196 202 205 187 212 219 237 235 207 199 184 212 219 155 191 154 161 249 246 264 264 278 285 271 262 249 259 243 247 265 275 301 313 23 36 66 36 42 31
167 179 177 252 205 212 203 204 193 197 184 208 215 209 196 188 200 202 207 206 197 209 213 220 253 336 280 282 285 277 275 259 265 267 265 272 277 306 334 29 32 57 45 49 35
226 216 192 232 188 195 200 199 193 185 221 217 209 194 212 226 198 274 178 194 188 168 198 198 225 233 276 291 303 285 271 255 269 269 277 266 287 32 37 62 52 51 64 57 34